Regional Weather Roundup
Issued by NWS

Home | Current Version | Previous Version | Text Only | Print | Product List | Glossary Off
Versions: 1 2 3 4 5 6 7 8 9 10 11 12 13 14 15 16 17 18 19 20 21 22 23 24 25 26 27 28 29 30 31 32 33 34 35 36 37 38 39 40 41 42 43 44 45 46 47 48 49 50

000
ASUS43 KDTX 041010
RWRMI
MICHIGAN HOURLY REGIONAL WEATHER ROUNDUP
NATIONAL WEATHER SERVICE DETROIT/PONTIAC MI
500 AM EST WED MAR 04 2015

NOTE: "FAIR" INDICATES FEW OR NO CLOUDS BELOW 12,000 FEET WITH NO
SIGNIFICANT WEATHER AND/OR OBSTRUCTION TO VISIBILITY.

MIZ047>049-052>055-059>063-066>070-074>076-081>083-041100-
SOUTHEAST LOWER MICHIGAN

CITY           SKY/WX    TMP DP  RH WIND       PRES   REMARKS
ADRIAN         CLOUDY    31  23  72 NW7       29.85R WCI  24
ALMA           CLOUDY    28  22  78 SW5       29.81R WCI  23
ANN ARBOR      CLOUDY    30  23  75 W5        29.84R WCI  25
BAD AXE        PTCLDY    24  20  86 W6        29.79R WCI  16
CARO           CLOUDY    28  22  78 SW7       29.80R WCI  20
DETROIT CITY   CLOUDY    32  22  66 VRB5      29.85R WCI  27
DETROIT        CLOUDY    31  23  72 W6        29.86R WCI  25
FLINT          CLOUDY    30  22  72 SW7       29.83R WCI  23
GROSSE ILE     CLOUDY    32  25  74 NW7       29.85R WCI  26
HILLSDALE      CLOUDY    30  25  82 W6        29.84R WCI  24
HOWELL         CLOUDY    28  23  81 SW5       29.81S WCI  23

CITY           SKY/WX    TMP DP  RH WIND       PRES   REMARKS
JACKSON        CLOUDY    29  22  75 SW6       29.83R WCI  23
LAMBERTVILLE   CLOUDY    34  27  75 CALM      29.85S
LANSING        CLOUDY    29  22  75 W8        29.83R WCI  21
LAPEER         CLOUDY    28  22  78 W6        29.80R WCI  21
MASON          CLOUDY    29  22  77 SW3       29.83R
MONROE         CLOUDY    32  25  74 NW7       29.85R WCI  26
MT. CLEMENS    CLOUDY    30  21  69 SW6       29.82R WCI  24
PONTIAC        CLOUDY    28  21  75 W7        29.81R WCI  21
PORT HOPE        N/A     26  19  74 W6        29.76R WCI  19
PORT HURON     CLOUDY    28  21  74 CALM      29.83R
TRI CITIES     MOCLDY    28  19  69 SW9       29.80R WCI  19
TROY           CLOUDY    32  23  71 SW3       29.85S
SAGINAW HB     MOCLDY    28  23  80 SW6       29.81R WCI  22
$$
MIZ043>046-050>051-056>058-064>065-071>073-077>080-041100-
SOUTHWEST LOWER MICHIGAN

CITY           SKY/WX    TMP DP  RH WIND       PRES   REMARKS
BATTLE CREEK   CLOUDY    30  23  75 SW7       29.84R WCI  23
BENTON HARBOR  CLOUDY    30  25  81 W7        29.88R WCI  23
BIG RAPIDS     MOCLDY    24  20  83 W6        29.80R WCI  17
COLDWATER      CLOUDY    29  24  79 W5        29.84S WCI  24
FREMONT        PTSUNNY   25  16  67 NW13G20   29.83R WCI  14
HOLLAND        CLOUDY    30  19  63 NW10      29.87R WCI  21
GRAND RAPIDS   CLOUDY    29  21  72 W9        29.84R WCI  20
IONIA          CLOUDY    30  23  75 W12       29.82R WCI  20
KALAMAZOO      CLOUDY    30  23  75 W7        29.85R WCI  23
LUDINGTON      MOCLDY    27  17  64 NW12G20   29.85R WCI  17
MARSHALL       CLOUDY    28  23  81 SW5       29.84R WCI  23
MOUNT PLEASANT CLOUDY    26  20  77 SW6       29.80R WCI  19
MUSKEGON       PTCLDY    27  17  66 NW14      29.87R WCI  16
SOUTH HAVEN    CLOUDY    32  23  70 NW6       29.87R WCI  26
$$
MIZ016>042-041100-
NORTHERN LOWER MICHIGAN

CITY           SKY/WX    TMP DP  RH WIND       PRES   REMARKS
ALPENA         CLOUDY    20  12  71 VRB5      29.76R WCI  13
BEAVER ISLAND  CLOUDY    16   9  73 NW10G16   29.80R WCI   3
BELLAIRE       MOCLDY    19  11  72 W3        29.82R
CADILLAC       CLOUDY    22  16  78 NW10      29.76R WCI  11
CHARLEVOIX     PTCLDY    18   9  68 NW12      29.83R WCI   5
FRANKFORT      PTCLDY    21  12  69 NW14      29.83R WCI   8
GAYLORD        CLOUDY    17  10  74 NW9       29.74R WCI   6
GRAYLING       MOCLDY    19  12  77 W12G17    29.77R WCI   6
HARBOR SPRINGS FLURRIES  18  11  74 NW7       29.79R WCI   9
HOUGHTON LAKE  LGT SNOW  20  16  84 NW9       29.77R FOG     WCI   9
MANISTEE       CLOUDY    25  12  58 NW17      29.84R WCI  11
OSCODA         MOCLDY    19  18  96 SW8       29.75R WCI   9
PELLSTON       CLOUDY    17  10  74 NW15      29.79R WCI   2
ROGERS CITY    CLOUDY    19  15  82 W8        29.77R WCI   9
TRAVERSE CITY  CLOUDY    22  13  68 N3        29.80R
$$
MIZ007>008-015-041100-
EASTERN UPPER MICHIGAN

CITY           SKY/WX    TMP DP  RH WIND       PRES   REMARKS
KINROSS        CLOUDY    14  12  92 NW14      29.74R WCI  -1
MACKINAC ISLAN CLOUDY    16   8  70 W10G20    29.77R WCI   3
NEWBERRY       MOCLDY    10   4  75 W13       29.76R WCI  -5
S. S. MARIE    MIX PCPN  13   5  70 NW17G29   29.74R WCI  -4
MUNISING         N/A     14   5  67 NW15G22   29.82R WCI  -1
$$
MIZ004>006-011>014-085-041100-
CENTRAL UPPER MICHIGAN

CITY           SKY/WX    TMP DP  RH WIND       PRES   REMARKS
MANISTIQUE     CLOUDY    13   7  77 NW7       29.81R WCI   3
ESCANABA       CLOUDY    14   3  62 W5        29.84R WCI   6
MENOMINEE      CLEAR     12   1  62 NW7       29.86R WCI   2
SAWYER-GWINN   CLEAR      8  -1  67 NW6       29.79R WCI  -2
$$
MIZ001>003-009>011-084-041100-
WESTERN UPPER MICHIGAN

CITY           SKY/WX    TMP DP  RH WIND       PRES   REMARKS
IRON MOUNTAIN  MOCLDY     8  -2  63 W10G16    29.81R WCI  -6
HOUGHTON       CLEAR      3  -2  79 W18G26    29.78R WCI -17
COPPER HARBOR    N/A      5  -4  66 N21G32    29.81R WCI -16
IRONWOOD       CLEAR      0  -6  78 W17       29.86R WCI -21
$$

ABBREVIATIONS USED IN REMARKS
   TC - TEMPERATURE IN CELSIUS
  WCI - WIND CHILL INDEX
   HX - HEAT INDEX
  VSB - VISIBILITY




USA.gov is the U.S. government's official web portal to all federal, state and local government web resources and services.